Time,TemperatureF,DewpointF,PressureIn,WindDirection,WindDirectionDegrees,WindSpeedMPH,WindSpeedGustMPH,Humidity,HourlyPrecipIn,Conditions,Clouds,dailyrainin,SoftwareType,DateUTC
2013-04-02 00:01:00,39.0,37.0,30.04,WNW,288,0.0,-999.0,91,-99.99,,,-99.99,,2013-04-02 07:01:00,
2013-04-02 00:11:00,39.0,37.0,30.04,WNW,288,0.0,-999.0,91,-99.99,,,-99.99,,2013-04-02 07:11:00,
2013-04-02 00:21:00,39.0,37.0,30.04,WNW,288,0.0,-999.0,91,-99.99,,,-99.99,,2013-04-02 07:21:00,
2013-04-02 00:31:00,39.0,37.0,30.05,WNW,288,0.0,-999.0,92,-99.99,,,-99.99,,2013-04-02 07:31:00,
2013-04-02 00:42:00,39.0,37.0,30.05,WNW,288,0.0,-999.0,92,-99.99,,,-99.99,,2013-04-02 07:42:00,
2013-04-02 00:52:00,38.0,36.0,30.06,WNW,288,0.0,-999.0,92,-99.99,,,-99.99,,2013-04-02 07:52:00,
2013-04-02 01:02:00,38.0,36.0,30.06,WNW,288,0.0,-999.0,93,-99.99,,,-99.99,,2013-04-02 08:02:00,
2013-04-02 01:12:00,38.0,36.0,30.06,WNW,288,0.0,-999.0,93,-99.99,,,-99.99,,2013-04-02 08:12:00,
2013-04-02 01:22:00,38.0,36.0,30.07,WNW,288,0.0,-999.0,93,-99.99,,,-99.99,,2013-04-02 08:22:00,
2013-04-02 01:32:00,37.0,35.0,30.07,WNW,288,0.0,-999.0,93,-99.99,,,-99.99,,2013-04-02 08:32:00,
2013-04-02 01:42:00,37.0,35.0,30.07,WNW,288,0.0,-999.0,93,-99.99,,,-99.99,,2013-04-02 08:42:00,
2013-04-02 01:52:00,37.0,35.0,30.07,WNW,288,0.0,-999.0,93,-99.99,,,-99.99,,2013-04-02 08:52:00,
2013-04-02 02:01:00,36.0,34.0,30.08,WNW,288,0.0,-999.0,93,-99.99,,,-99.99,,2013-04-02 09:01:00,
2013-04-02 02:12:00,36.0,34.0,30.08,WNW,288,0.0,-999.0,93,-99.99,,,-99.99,,2013-04-02 09:12:00,
2013-04-02 02:22:00,36.0,34.0,30.08,WNW,288,0.0,-999.0,93,-99.99,,,-99.99,,2013-04-02 09:22:00,
2013-04-02 02:32:00,36.0,34.0,30.08,WNW,288,0.0,-999.0,93,-99.99,,,-99.99,,2013-04-02 09:32:00,
2013-04-02 02:42:00,36.0,34.0,30.08,WNW,288,0.0,-999.0,93,-99.99,,,-99.99,,2013-04-02 09:42:00,
2013-04-02 02:52:00,36.0,34.0,30.08,WNW,288,0.0,-999.0,94,-99.99,,,-99.99,,2013-04-02 09:52:00,
2013-04-02 03:03:00,35.0,33.0,30.08,WNW,288,0.0,-999.0,94,-99.99,,,-99.99,,2013-04-02 10:03:00,
2013-04-02 03:13:00,35.0,33.0,30.08,WNW,288,0.0,-999.0,94,-99.99,,,-99.99,,2013-04-02 10:13:00,
2013-04-02 03:22:00,35.0,33.0,30.09,WNW,288,0.0,-999.0,94,-99.99,,,-99.99,,2013-04-02 10:22:00,
2013-04-02 03:33:00,35.0,33.0,30.09,WNW,288,0.0,-999.0,94,-99.99,,,-99.99,,2013-04-02 10:33:00,
2013-04-02 03:42:00,35.0,33.0,30.09,WNW,288,0.0,-999.0,94,-99.99,,,-99.99,,2013-04-02 10:42:00,
2013-04-02 03:52:00,35.0,33.0,30.09,WNW,288,0.0,-999.0,94,-99.99,,,-99.99,,2013-04-02 10:52:00,
2013-04-02 04:02:00,34.0,32.0,30.09,WNW,288,0.0,-999.0,94,-99.99,,,-99.99,,2013-04-02 11:02:00,
2013-04-02 04:12:00,34.0,32.0,30.09,WNW,288,0.0,-999.0,94,-99.99,,,-99.99,,2013-04-02 11:12:00,
2013-04-02 04:22:00,34.0,32.0,30.09,WNW,288,0.0,-999.0,94,-99.99,,,-99.99,,2013-04-02 11:22:00,
2013-04-02 04:32:00,34.0,32.0,30.09,WNW,288,0.0,-999.0,94,-99.99,,,-99.99,,2013-04-02 11:32:00,
2013-04-02 04:42:00,34.0,32.0,30.09,WNW,288,0.0,-999.0,94,-99.99,,,-99.99,,2013-04-02 11:42:00,
2013-04-02 04:52:00,34.0,33.0,30.10,WNW,288,0.0,-999.0,95,-99.99,,,-99.99,,2013-04-02 11:52:00,
2013-04-02 05:02:00,33.0,31.0,30.10,WNW,288,0.0,-999.0,94,-99.99,,,-99.99,,2013-04-02 12:02:00,
2013-04-02 05:11:00,33.0,31.0,30.10,WNW,288,0.0,-999.0,94,-99.99,,,-99.99,,2013-04-02 12:11:00,
2013-04-02 05:22:00,33.0,32.0,30.10,WNW,288,0.0,-999.0,95,-99.99,,,-99.99,,2013-04-02 12:22:00,
2013-04-02 05:32:00,33.0,32.0,30.10,WNW,288,0.0,-999.0,95,-99.99,,,-99.99,,2013-04-02 12:32:00,
2013-04-02 05:42:00,33.0,32.0,30.10,WNW,288,0.0,-999.0,95,-99.99,,,-99.99,,2013-04-02 12:42:00,
2013-04-02 05:52:00,33.0,32.0,30.11,WNW,288,0.0,-999.0,95,-99.99,,,-99.99,,2013-04-02 12:52:00,
2013-04-02 06:01:00,33.0,32.0,30.11,WNW,288,0.0,-999.0,95,-99.99,,,-99.99,,2013-04-02 13:01:00,
2013-04-02 06:12:00,33.0,32.0,30.11,WNW,288,0.0,-999.0,95,-99.99,,,-99.99,,2013-04-02 13:12:00,
2013-04-02 06:22:00,33.0,32.0,30.11,WNW,288,0.0,-999.0,95,-99.99,,,-99.99,,2013-04-02 13:22:00,
2013-04-02 06:32:00,33.0,32.0,30.12,WNW,288,0.0,-999.0,95,-99.99,,,-99.99,,2013-04-02 13:32:00,
2013-04-02 06:42:00,33.0,32.0,30.12,WNW,288,0.0,-999.0,95,-99.99,,,-99.99,,2013-04-02 13:42:00,
2013-04-02 06:52:00,33.0,32.0,30.12,WNW,288,0.0,-999.0,95,-99.99,,,-99.99,,2013-04-02 13:52:00,
2013-04-02 07:02:00,33.0,32.0,30.13,WNW,288,0.0,-999.0,95,-99.99,,,-99.99,,2013-04-02 14:02:00,
2013-04-02 07:12:00,33.0,32.0,30.13,WNW,288,0.0,-999.0,95,-99.99,,,-99.99,,2013-04-02 14:12:00,
2013-04-02 07:22:00,33.0,32.0,30.13,WNW,288,0.0,-999.0,95,-99.99,,,-99.99,,2013-04-02 14:22:00,
2013-04-02 07:32:00,33.0,32.0,30.13,WNW,288,0.0,-999.0,95,-99.99,,,-99.99,,2013-04-02 14:32:00,
2013-04-02 07:42:00,33.0,32.0,30.13,WNW,288,0.0,-999.0,95,-99.99,,,-99.99,,2013-04-02 14:42:00,
2013-04-02 07:52:00,34.0,33.0,30.14,WNW,288,0.0,-999.0,95,-99.99,,,-99.99,,2013-04-02 14:52:00,
2013-04-02 08:02:00,34.0,33.0,30.14,WNW,288,0.0,-999.0,95,-99.99,,,-99.99,,2013-04-02 15:02:00,
2013-04-02 08:11:00,34.0,33.0,30.14,WNW,288,0.0,-999.0,95,-99.99,,,-99.99,,2013-04-02 15:11:00,
2013-04-02 08:21:00,35.0,34.0,30.14,WNW,288,0.0,-999.0,96,-99.99,,,-99.99,,2013-04-02 15:21:00,
2013-04-02 08:33:00,36.0,35.0,30.14,WNW,288,0.0,-999.0,96,-99.99,,,-99.99,,2013-04-02 15:33:00,
2013-04-02 08:42:00,36.0,35.0,30.14,WNW,288,0.0,-999.0,96,-99.99,,,-99.99,,2013-04-02 15:42:00,
2013-04-02 08:53:00,38.0,37.0,30.14,WNW,288,0.0,-999.0,95,-99.99,,,-99.99,,2013-04-02 15:53:00,
2013-04-02 09:13:00,39.0,38.0,30.14,WNW,288,0.0,-999.0,95,-99.99,,,-99.99,,2013-04-02 16:13:00,
2013-04-02 09:23:00,42.0,40.0,30.14,WNW,288,0.0,-999.0,93,-99.99,,,-99.99,,2013-04-02 16:23:00,
2013-04-02 09:33:00,43.0,40.0,30.14,WNW,288,0.0,-999.0,89,-99.99,,,-99.99,,2013-04-02 16:33:00,
2013-04-02 09:43:00,43.0,40.0,30.14,WNW,288,0.0,-999.0,89,-99.99,,,-99.99,,2013-04-02 16:43:00,
2013-04-02 09:52:00,47.0,43.0,30.14,WNW,288,0.0,-999.0,85,-99.99,,,-99.99,,2013-04-02 16:52:00,
2013-04-02 10:03:00,47.0,42.0,30.14,WNW,288,0.0,-999.0,82,-99.99,,,-99.99,,2013-04-02 17:03:00,
2013-04-02 10:12:00,47.0,42.0,30.14,WNW,288,0.0,-999.0,82,-99.99,,,-99.99,,2013-04-02 17:12:00,
2013-04-02 10:23:00,48.0,43.0,30.14,WNW,288,0.0,-999.0,82,-99.99,,,-99.99,,2013-04-02 17:23:00,
2013-04-02 10:33:00,50.0,43.0,30.14,WNW,288,0.0,-999.0,78,-99.99,,,-99.99,,2013-04-02 17:33:00,
2013-04-02 10:43:00,50.0,43.0,30.14,WNW,288,0.0,-999.0,78,-99.99,,,-99.99,,2013-04-02 17:43:00,
2013-04-02 10:52:00,51.0,44.0,30.14,NW,315,1.0,-999.0,76,-99.99,,,-99.99,,2013-04-02 17:52:00,
2013-04-02 11:02:00,52.0,44.0,30.13,WNW,289,3.0,-999.0,74,-99.99,,,-99.99,,2013-04-02 18:02:00,
2013-04-02 11:12:00,52.0,44.0,30.13,WNW,289,3.0,-999.0,74,-99.99,,,-99.99,,2013-04-02 18:12:00,
2013-04-02 11:33:00,54.0,43.0,30.13,NW,324,1.0,-999.0,67,-99.99,,,-99.99,,2013-04-02 18:33:00,
2013-04-02 11:42:00,54.0,43.0,30.13,NW,324,1.0,-999.0,67,-99.99,,,-99.99,,2013-04-02 18:42:00,
2013-04-02 11:52:00,54.0,43.0,30.13,NW,324,1.0,-999.0,67,-99.99,,,-99.99,,2013-04-02 18:52:00,
2013-04-02 12:02:00,56.0,44.0,30.12,NE,52,1.0,-999.0,65,-99.99,,,-99.99,,2013-04-02 19:02:00,
2013-04-02 12:13:00,56.0,44.0,30.12,NE,52,1.0,-999.0,65,-99.99,,,-99.99,,2013-04-02 19:13:00,
2013-04-02 12:22:00,57.0,44.0,30.11,ENE,65,1.0,-999.0,61,-99.99,,,-99.99,,2013-04-02 19:22:00,
2013-04-02 12:44:00,57.0,43.0,30.11,WSW,246,2.0,-999.0,60,-99.99,,,-99.99,,2013-04-02 19:44:00,
2013-04-02 12:52:00,58.0,44.0,30.10,South,191,1.0,-999.0,59,-99.99,,,-99.99,,2013-04-02 19:52:00,
2013-04-02 13:03:00,59.0,44.0,30.10,WNW,302,1.0,-999.0,58,-99.99,,,-99.99,,2013-04-02 20:03:00,
2013-04-02 13:12:00,59.0,44.0,30.10,WNW,302,1.0,-999.0,58,-99.99,,,-99.99,,2013-04-02 20:12:00,
2013-04-02 13:21:00,59.0,44.0,30.09,SSW,207,2.0,-999.0,57,-99.99,,,-99.99,,2013-04-02 20:21:00,
2013-04-02 13:32:00,60.0,44.0,30.09,WNW,298,1.0,-999.0,55,-99.99,,,-99.99,,2013-04-02 20:32:00,
2013-04-02 13:43:00,60.0,44.0,30.09,WNW,298,1.0,-999.0,55,-99.99,,,-99.99,,2013-04-02 20:43:00,
2013-04-02 14:02:00,61.0,43.0,30.09,WSW,248,1.0,-999.0,52,-99.99,,,-99.99,,2013-04-02 21:02:00,
2013-04-02 14:13:00,61.0,43.0,30.09,WSW,248,1.0,-999.0,52,-99.99,,,-99.99,,2013-04-02 21:13:00,
2013-04-02 14:22:00,62.0,44.0,30.08,NNE,12,2.0,-999.0,51,-99.99,,,-99.99,,2013-04-02 21:22:00,
2013-04-02 14:33:00,62.0,42.0,30.08,NNW,329,4.0,-999.0,48,-99.99,,,-99.99,,2013-04-02 21:33:00,
2013-04-02 14:42:00,62.0,42.0,30.08,NNW,329,4.0,-999.0,48,-99.99,,,-99.99,,2013-04-02 21:42:00,
2013-04-02 14:53:00,61.0,42.0,30.07,NW,313,5.0,-999.0,49,-99.99,,,-99.99,,2013-04-02 21:53:00,
2013-04-02 15:03:00,62.0,43.0,30.07,West,280,7.0,-999.0,49,-99.99,,,-99.99,,2013-04-02 22:03:00,
2013-04-02 15:13:00,62.0,43.0,30.07,West,280,7.0,-999.0,49,-99.99,,,-99.99,,2013-04-02 22:13:00,
2013-04-02 15:22:00,62.0,41.0,30.06,WNW,296,5.0,-999.0,46,-99.99,,,-99.99,,2013-04-02 22:22:00,
2013-04-02 15:33:00,62.0,40.0,30.06,WNW,292,6.0,-999.0,45,-99.99,,,-99.99,,2013-04-02 22:33:00,
2013-04-02 15:43:00,62.0,40.0,30.06,WNW,292,6.0,-999.0,45,-99.99,,,-99.99,,2013-04-02 22:43:00,
2013-04-02 15:52:00,63.0,41.0,30.06,West,263,7.0,-999.0,45,-99.99,,,-99.99,,2013-04-02 22:52:00,
2013-04-02 16:02:00,61.0,42.0,30.06,WNW,288,5.0,-999.0,50,-99.99,,,-99.99,,2013-04-02 23:02:00,
2013-04-02 16:12:00,61.0,42.0,30.06,WNW,288,5.0,-999.0,50,-99.99,,,-99.99,,2013-04-02 23:12:00,
2013-04-02 16:33:00,62.0,43.0,30.06,NNW,336,5.0,-999.0,49,-99.99,,,-99.99,,2013-04-02 23:33:00,
2013-04-02 16:42:00,62.0,43.0,30.06,NNW,336,5.0,-999.0,49,-99.99,,,-99.99,,2013-04-02 23:42:00,
2013-04-02 16:52:00,63.0,43.0,30.06,West,276,3.0,-999.0,48,-99.99,,,-99.99,,2013-04-02 23:52:00,
2013-04-02 17:02:00,62.0,43.0,30.06,WNW,293,6.0,-999.0,50,-99.99,,,-99.99,,2013-04-03 00:02:00,
2013-04-02 17:12:00,62.0,43.0,30.06,WNW,293,6.0,-999.0,50,-99.99,,,-99.99,,2013-04-03 00:12:00,
2013-04-02 17:22:00,62.0,44.0,30.06,West,280,5.0,-999.0,51,-99.99,,,-99.99,,2013-04-03 00:22:00,
2013-04-02 17:32:00,61.0,43.0,30.05,WNW,303,6.0,-999.0,52,-99.99,,,-99.99,,2013-04-03 00:32:00,
2013-04-02 17:44:00,61.0,43.0,30.05,WNW,303,6.0,-999.0,52,-99.99,,,-99.99,,2013-04-03 00:44:00,
2013-04-02 17:52:00,61.0,42.0,30.05,WNW,294,5.0,-999.0,50,-99.99,,,-99.99,,2013-04-03 00:52:00,
2013-04-02 18:02:00,61.0,44.0,30.05,West,279,5.0,-999.0,53,-99.99,,,-99.99,,2013-04-03 01:02:00,
2013-04-02 18:11:00,61.0,44.0,30.05,West,279,5.0,-999.0,53,-99.99,,,-99.99,,2013-04-03 01:11:00,
2013-04-02 18:21:00,60.0,43.0,30.05,WNW,290,6.0,-999.0,54,-99.99,,,-99.99,,2013-04-03 01:21:00,
2013-04-02 18:33:00,60.0,44.0,30.05,WNW,284,4.0,-999.0,55,-99.99,,,-99.99,,2013-04-03 01:33:00,
2013-04-02 18:42:00,60.0,44.0,30.05,WNW,284,4.0,-999.0,55,-99.99,,,-99.99,,2013-04-03 01:42:00,
2013-04-02 18:52:00,59.0,44.0,30.05,WNW,282,4.0,-999.0,57,-99.99,,,-99.99,,2013-04-03 01:52:00,
2013-04-02 19:03:00,58.0,43.0,30.05,West,267,1.0,-999.0,58,-99.99,,,-99.99,,2013-04-03 02:03:00,
2013-04-02 19:12:00,58.0,43.0,30.05,West,267,1.0,-999.0,58,-99.99,,,-99.99,,2013-04-03 02:12:00,
2013-04-02 19:22:00,57.0,44.0,30.05,West,280,2.0,-999.0,62,-99.99,,,-99.99,,2013-04-03 02:22:00,
2013-04-02 19:33:00,55.0,43.0,30.05,WNW,286,2.0,-999.0,65,-99.99,,,-99.99,,2013-04-03 02:33:00,
2013-04-02 19:43:00,55.0,43.0,30.05,WNW,286,2.0,-999.0,65,-99.99,,,-99.99,,2013-04-03 02:43:00,
2013-04-02 19:52:00,54.0,43.0,30.06,WNW,286,1.0,-999.0,67,-99.99,,,-99.99,,2013-04-03 02:52:00,
2013-04-02 20:03:00,53.0,43.0,30.06,WNW,288,0.0,-999.0,69,-99.99,,,-99.99,,2013-04-03 03:03:00,
2013-04-02 20:13:00,53.0,43.0,30.06,WNW,288,0.0,-999.0,69,-99.99,,,-99.99,,2013-04-03 03:13:00,
2013-04-02 20:22:00,53.0,44.0,30.07,WNW,288,1.0,-999.0,71,-99.99,,,-99.99,,2013-04-03 03:22:00,
2013-04-02 20:34:00,52.0,43.0,30.07,NW,315,3.0,-999.0,71,-99.99,,,-99.99,,2013-04-03 03:34:00,
2013-04-02 20:43:00,52.0,43.0,30.07,NW,315,3.0,-999.0,71,-99.99,,,-99.99,,2013-04-03 03:43:00,
2013-04-02 20:53:00,52.0,43.0,30.08,NW,315,1.0,-999.0,72,-99.99,,,-99.99,,2013-04-03 03:53:00,
2013-04-02 21:03:00,51.0,43.0,30.09,NW,315,0.0,-999.0,73,-99.99,,,-99.99,,2013-04-03 04:03:00,
2013-04-02 21:12:00,51.0,43.0,30.09,NW,315,0.0,-999.0,73,-99.99,,,-99.99,,2013-04-03 04:12:00,
2013-04-02 21:23:00,49.0,42.0,30.09,NW,315,0.0,-999.0,76,-99.99,,,-99.99,,2013-04-03 04:23:00,
2013-04-02 21:32:00,49.0,42.0,30.09,NW,315,0.0,-999.0,76,-99.99,,,-99.99,,2013-04-03 04:32:00,
2013-04-02 21:42:00,49.0,42.0,30.09,NW,315,0.0,-999.0,76,-99.99,,,-99.99,,2013-04-03 04:42:00,
2013-04-02 21:53:00,47.0,41.0,30.10,NW,315,0.0,-999.0,80,-99.99,,,-99.99,,2013-04-03 04:53:00,
2013-04-02 22:02:00,45.0,40.0,30.10,NW,315,0.0,-999.0,84,-99.99,,,-99.99,,2013-04-03 05:02:00,
2013-04-02 22:12:00,45.0,40.0,30.10,NW,315,0.0,-999.0,84,-99.99,,,-99.99,,2013-04-03 05:12:00,
2013-04-02 22:22:00,44.0,40.0,30.11,NW,315,0.0,-999.0,86,-99.99,,,-99.99,,2013-04-03 05:22:00,
2013-04-02 22:32:00,43.0,40.0,30.11,NW,315,0.0,-999.0,89,-99.99,,,-99.99,,2013-04-03 05:32:00,
2013-04-02 22:42:00,43.0,40.0,30.11,NW,315,0.0,-999.0,89,-99.99,,,-99.99,,2013-04-03 05:42:00,
2013-04-02 22:52:00,43.0,40.0,30.11,NW,315,0.0,-999.0,89,-99.99,,,-99.99,,2013-04-03 05:52:00,
2013-04-02 23:02:00,43.0,40.0,30.11,NW,315,0.0,-999.0,89,-99.99,,,-99.99,,2013-04-03 06:02:00,
2013-04-02 23:12:00,43.0,40.0,30.11,NW,315,0.0,-999.0,89,-99.99,,,-99.99,,2013-04-03 06:12:00,
2013-04-02 23:21:00,42.0,39.0,30.11,NW,315,0.0,-999.0,90,-99.99,,,-99.99,,2013-04-03 06:21:00,
2013-04-02 23:32:00,42.0,39.0,30.11,NW,315,0.0,-999.0,90,-99.99,,,-99.99,,2013-04-03 06:32:00,
2013-04-02 23:42:00,42.0,39.0,30.11,NW,315,0.0,-999.0,90,-99.99,,,-99.99,,2013-04-03 06:42:00,
2013-04-02 23:52:00,41.0,38.0,30.11,NW,315,0.0,-999.0,90,-99.99,,,-99.99,,2013-04-03 06:52:00,